{"data":{"norad_id":67407,"epoch":"2026-05-24T10:59:03.964128Z","epoch_age_seconds":111969,"freshness":"FRESH","line1":"1 67407U 26005D   26144.45768477  .00007724  00000+0  28982-3 0  9993","line2":"2 67407  43.0032 170.1373 0001751 275.6832  84.3820 15.27592035 20283","mean_motion":15.27592035,"eccentricity":0.0001751,"inclination_deg":43.0032,"raan_deg":170.1373,"arg_perigee_deg":275.6832,"mean_anomaly_deg":84.382,"bstar":0.00028982,"rev_number":2028,"period_min":94.266006041332,"perigee_km":481.81167178132,"apogee_km":484.21444653204,"semimajor_km":6861.1500591567,"source":"CELESTRAK","updated_at":"2026-05-25T13:38:21.552633Z"}}